Wind_Speed
23 23 22 18 17 18 17 14 14 15 12 8 4 3 3 3 2 1 3 5 5 5 4 3 3 4 5 6 7 7 6 5 5 5 6 6 5 4 3 3 3 4 8 10 12 10 8 10 9 8 12 8 8 19 24 20 18 13 8 9 7 1 4 8 8 8 8 6 7 8 8 10 13 12 12 11 10 11 10 7 5 7 9 7 4 5 3
22 23 23 20 18 18 17 13 13 13 12 8 4 3 3 4 4 3 4 4 4 4 4 3 3 4 5 6 8 8 6 6 6 5 4 3 3 3 3 3 2 3 7 10 12 10 7 8 9 8 11 8 9 21 29 23 17 13 8 9 8 5 6 7 8 8 9 7 7 9 9 10 9 9 12 12 13 14 11 6 3 5 9 10 8 7 4
22 23 24 23 21 21 20 16 13 12 10 9 5 3 3 4 4 4 5 7 7 6 5 5 4 5 6 7 7 6 5 7 7 5 4 3 3 2 2 1 1 5 10 10 11 9 5 6 8 8 10 8 7 17 29 25 18 15 12 11 9 6 5 7 8 9 10 10 8 9 10 9 8 10 13 15 15 15 11 6 6 7 8 9 9 6 3
21 22 24 24 22 21 21 20 17 13 9 8 6 3 3 3 2 2 4 6 9 8 8 7 5 5 5 5 4 4 3 2 4 4 4 4 4 3 1 2 3 8 12 11 10 9 8 8 8 8 10 7 5 15 26 26 22 17 15 13 9 4 4 8 8 5 7 9 8 8 10 11 11 13 14 15 15 15 11 8 8 8 7 8 10 6 4
20 22 24 24 22 20 20 21 19 15 10 7 6 4 4 3 1 1 2 3 6 8 8 7 5 5 5 3 4 5 6 4 2 1 2 1 2 3 2 3 6 11 13 11 10 10 10 9 9 11 11 8 7 15 21 23 20 17 15 15 10 4 5 9 8 3 1 1 5 8 11 14 15 15 16 16 16 17 15 11 10 8 7 7 8 8 7
20 22 24 25 24 21 21 21 19 16 12 8 6 4 3 3 2 2 2 2 3 4 6 7 6 7 5 3 4 6 7 7 4 2 3 2 3 3 4 5 7 12 14 11 10 11 11 10 11 11 11 10 10 13 15 17 16 15 14 16 9 5 7 8 8 4 3 5 5 5 8 12 13 15 17 17 17 19 17 15 14 10 8 7 7 10 10
20 21 22 24 25 23 22 22 20 17 13 9 6 4 3 4 3 3 3 4 5 7 8 8 6 5 5 3 3 5 6 7 5 3 2 2 2 1 4 7 8 12 14 11 9 10 9 10 10 10 11 12 10 10 11 12 13 14 14 12 8 6 5 7 9 8 3 3 4 2 4 7 9 13 16 16 18 19 18 17 17 15 12 8 5 8 9
19 20 21 22 24 24 24 23 21 18 15 12 8 4 4 5 5 6 7 7 8 8 6 5 4 1 0 1 3 4 6 8 6 3 1 2 3 2 2 5 6 10 12 11 11 10 9 10 10 10 11 11 9 9 8 9 13 15 12 8 7 6 4 6 8 8 6 5 3 2 3 4 7 11 12 12 14 17 18 16 15 15 12 9 8 9 7
18 18 19 21 22 24 25 25 23 21 17 13 9 5 6 8 6 7 8 6 6 6 4 3 2 3 3 4 5 5 5 8 7 3 2 3 3 3 2 2 3 9 11 10 11 9 7 8 11 11 11 10 9 7 8 11 13 13 11 9 8 7 3 4 7 7 7 7 5 4 3 4 8 10 10 11 11 12 14 13 12 13 13 11 10 10 8
18 17 18 19 21 22 24 25 25 23 19 15 12 9 8 8 7 6 6 4 4 4 4 3 2 3 3 5 5 4 4 6 6 3 2 4 6 5 6 6 1 9 9 6 4 2 1 3 6 9 10 10 9 6 8 15 14 10 10 8 8 9 6 5 7 7 6 7 5 4 4 6 8 7 6 9 12 12 10 9 9 13 13 11 10 10 8
18 17 17 18 20 21 23 24 25 24 20 16 14 12 9 7 7 7 5 2 3 4 3 3 4 3 5 6 6 5 5 4 3 2 1 3 6 5 6 7 1 7 5 3 5 5 3 3 3 6 7 8 9 6 8 15 16 12 11 8 7 11 9 5 7 7 6 7 5 4 7 8 4 1 2 2 6 11 13 11 11 14 12 6 4 6 8
18 18 17 18 19 20 22 23 24 24 21 17 14 13 10 6 6 6 4 3 4 5 3 4 5 5 5 7 6 5 5 4 3 4 3 4 6 6 5 5 2 6 3 1 4 5 6 7 7 8 7 6 8 6 6 11 13 13 14 10 8 11 9 6 6 6 5 6 5 7 9 5 2 3 2 2 1 5 9 8 9 12 12 8 4 5 9
16 17 17 17 18 19 20 22 22 23 22 18 16 15 12 8 5 5 4 4 4 5 4 4 7 8 7 7 7 5 6 7 6 4 3 4 4 3 3 5 5 4 3 1 4 3 6 11 10 9 9 8 8 6 4 6 8 10 13 12 10 10 8 6 5 6 5 5 7 9 4 2 4 3 2 2 1 3 5 5 8 12 13 11 10 7 7
15 16 16 16 16 17 19 20 21 22 22 20 17 17 16 10 5 5 5 4 4 7 6 4 7 9 8 7 5 4 4 4 2 2 1 3 2 5 7 7 5 3 2 1 4 4 7 9 7 8 9 8 7 6 5 4 4 7 10 10 10 10 9 7 5 6 5 5 8 6 1 2 5 3 5 7 4 6 7 6 8 13 13 13 11 8 8
14 14 14 14 15 16 17 19 20 21 22 21 18 17 18 14 7 4 5 5 4 6 8 7 8 10 8 7 6 4 4 4 2 3 3 2 4 7 9 8 5 5 2 1 3 4 5 7 7 8 8 6 7 6 6 5 3 3 6 7 7 8 8 8 7 6 5 7 8 7 6 7 6 3 7 8 3 3 5 4 4 10 14 16 13 11 12
15 14 13 14 14 14 16 18 19 20 21 22 20 16 16 17 11 5 5 5 4 4 8 9 10 10 7 6 7 6 5 5 4 1 3 6 9 9 10 9 6 5 3 2 1 2 3 6 7 7 6 5 6 6 6 7 5 3 4 6 7 7 6 7 7 6 7 8 8 7 7 6 4 5 8 9 5 3 4 5 5 9 17 20 16 13 15
14 14 13 13 13 14 15 16 18 19 19 21 21 16 13 17 14 6 4 5 5 5 7 10 10 8 6 6 7 7 6 5 4 3 3 5 8 8 10 10 6 5 4 3 0 1 4 6 6 6 5 3 4 6 7 7 6 6 6 7 9 8 6 7 8 7 8 9 8 7 6 2 5 7 8 10 8 5 5 7 4 7 16 21 19 17 19
14 14 13 12 12 13 14 15 16 18 18 19 20 16 13 17 17 9 5 6 6 5 6 9 9 8 7 7 6 7 7 4 3 3 3 2 3 6 11 10 3 3 3 2 1 2 4 5 3 5 5 2 1 4 5 6 6 7 9 9 9 8 7 8 9 8 8 9 8 8 4 3 6 8 10 12 9 5 7 5 1 4 12 18 18 18 20
14 14 13 12 11 11 12 14 15 17 18 18 19 15 13 18 19 13 7 6 6 6 6 9 9 7 7 7 6 4 5 5 4 4 3 3 4 9 11 9 3 1 2 1 1 1 3 3 1 1 3 3 2 1 3 4 4 5 9 9 9 8 7 7 8 8 8 8 7 8 5 3 7 10 10 8 6 5 4 1 3 2 9 14 13 15 18
13 13 12 12 11 11 11 12 13 15 16 17 18 16 14 18 20 15 9 8 8 9 8 9 8 8 8 7 6 6 5 5 6 6 4 3 6 9 5 2 1 1 1 1 2 1 0 2 2 0 1 3 2 1 2 3 2 2 5 6 6 6 7 8 7 7 6 6 8 8 5 5 13 14 8 4 4 0 1 2 3 2 8 12 12 13 16
13 13 12 12 11 10 10 10 12 14 15 16 16 16 14 16 19 17 14 10 7 7 6 8 8 8 8 7 6 6 6 5 5 6 5 4 4 4 1 1 3 2 2 2 2 1 1 1 2 0 0 2 1 1 2 3 4 2 0 2 3 4 6 6 6 7 6 7 7 4 2 6 16 12 3 1 1 4 4 1 3 3 7 11 11 12 15
13 12 12 11 11 11 10 10 11 12 13 14 15 14 14 15 17 17 16 13 9 7 5 6 7 8 10 9 6 4 4 4 4 3 4 3 2 1 1 3 5 4 4 3 1 1 1 0 1 1 1 1 1 1 1 2 4 4 2 2 2 1 1 3 3 5 4 4 1 2 4 8 13 6 5 3 2 4 5 3 3 3 7 9 9 11 15
12 12 12 11 10 11 10 10 11 11 12 13 13 13 14 13 14 16 15 15 15 11 7 5 6 8 10 9 6 6 7 7 4 2 4 4 2 2 3 4 6 5 4 4 4 3 2 1 1 1 1 1 1 2 2 3 2 3 3 3 1 2 2 2 2 2 2 2 1 3 2 6 10 5 4 4 0 1 3 3 1 2 6 9 9 11 16
13 12 12 10 10 10 10 10 11 10 11 12 12 12 12 11 12 14 13 13 14 12 6 4 6 10 11 8 5 6 8 7 6 5 3 3 3 2 3 5 6 4 3 5 6 4 2 2 1 2 1 0 1 2 3 3 2 1 2 3 3 3 3 3 2 1 3 3 3 3 2 3 7 8 4 2 1 2 1 1 0 2 5 9 9 11 15
13 12 11 11 10 10 10 11 11 11 11 11 11 11 10 10 10 10 10 10 9 7 5 3 6 11 12 5 3 7 8 5 4 6 5 4 3 3 4 6 8 6 5 6 6 4 3 1 1 2 1 1 1 2 1 1 0 0 3 3 2 4 5 5 4 4 3 1 2 2 1 2 5 9 8 5 3 4 3 2 2 4 6 9 10 12 15
13 12 11 11 10 9 10 11 12 12 11 10 10 10 9 8 8 7 7 10 8 6 4 3 7 12 12 5 4 7 6 2 3 5 6 6 4 4 6 8 8 7 7 6 4 4 4 2 2 3 1 1 1 1 1 1 0 1 3 1 4 4 5 3 3 4 5 3 2 3 3 4 7 10 11 9 6 5 4 4 4 5 7 9 10 12 14
13 12 11 10 10 10 10 10 12 12 11 10 9 10 9 8 7 5 4 7 6 5 3 5 11 14 10 4 5 7 5 3 3 3 3 4 5 6 7 7 6 5 5 3 2 3 4 3 2 2 1 1 1 1 1 1 1 2 3 2 4 4 4 3 3 5 5 2 2 3 3 3 4 6 9 11 10 7 6 6 5 6 8 9 10 12 13
13 13 12 10 10 10 10 10 11 13 12 9 8 8 9 8 6 6 4 3 5 4 6 10 15 13 7 3 5 7 7 6 4 2 2 3 4 7 8 7 5 4 4 4 3 4 4 2 1 1 1 1 1 2 1 1 2 4 2 4 6 4 2 2 3 4 1 3 4 1 4 2 3 2 5 10 11 10 8 7 7 7 8 10 12 14 14
12 13 12 11 11 10 10 10 11 12 12 9 7 7 7 6 5 6 6 4 5 6 9 12 11 9 7 6 5 5 7 7 4 3 3 3 4 6 6 5 4 3 3 4 4 3 1 1 2 1 1 1 1 2 2 3 4 2 1 4 5 2 1 1 3 3 2 4 5 2 2 2 3 1 3 7 10 9 7 7 7 7 8 10 12 13 15
12 12 12 12 11 10 10 11 11 13 13 9 6 5 4 3 4 6 7 5 5 5 7 8 6 7 10 9 5 6 8 7 3 2 2 3 3 3 3 4 4 2 2 4 3 1 1 3 2 1 1 1 2 2 2 3 3 1 4 3 4 3 1 1 2 2 2 4 3 1 0 2 1 1 4 8 10 8 6 6 7 7 8 9 11 12 13
12 12 12 12 12 11 11 11 12 13 13 10 6 3 2 2 4 7 7 4 4 5 5 6 8 9 8 6 6 9 9 5 2 1 1 2 2 3 3 3 3 2 2 1 1 1 1 2 2 2 3 2 3 3 2 3 4 2 4 3 4 4 2 1 1 2 2 2 1 3 1 0 1 2 4 8 10 8 6 6 7 7 8 9 9 11 12
12 12 12 12 12 12 12 12 12 13 13 11 8 6 4 2 4 8 7 3 4 4 4 6 7 6 3 4 7 9 7 4 2 1 1 0 2 3 2 1 2 2 2 1 2 2 1 1 1 2 3 2 2 2 3 5 3 2 5 4 3 4 3 1 2 3 2 2 4 3 1 2 4 2 3 7 9 8 6 6 6 7 8 8 9 10 12
12 12 12 12 12 12 13 12 13 14 13 12 9 8 9 9 9 10 8 5 4 4 4 5 4 3 3 6 6 5 5 4 2 1 1 2 2 2 1 1 0 2 2 1 1 2 2 1 2 2 2 1 2 3 4 4 0 4 5 4 3 4 5 4 3 3 3 4 4 2 2 3 6 4 4 7 8 8 7 6 6 8 9 10 11 12 13
13 13 12 11 11 12 13 12 13 13 12 11 9 8 9 10 11 12 11 6 4 4 4 4 4 4 4 5 3 1 4 5 2 1 1 2 2 3 2 1 3 1 1 1 1 2 2 1 1 1 2 2 1 3 4 2 3 5 5 5 4 5 5 5 5 5 5 6 5 2 3 3 6 5 5 6 7 7 7 7 9 10 11 12 13 13 15
14 13 12 10 10 11 11 11 11 10 8 7 8 9 9 8 9 11 10 6 4 4 4 3 4 4 5 4 1 2 4 4 2 2 3 2 2 2 3 2 2 1 1 1 1 2 1 1 2 2 2 2 2 4 4 2 4 6 7 6 7 8 7 6 7 6 6 6 4 2 2 5 6 5 6 6 6 7 7 8 10 12 12 13 14 15 16
14 13 10 8 9 9 8 9 7 5 4 6 8 8 8 7 7 8 10 9 7 6 3 3 4 4 4 3 2 3 4 2 1 1 2 2 1 1 2 3 0 2 1 1 2 1 2 1 2 3 2 2 3 3 2 2 1 6 7 8 9 9 6 6 7 9 8 7 5 3 5 7 6 6 6 6 6 7 8 9 11 12 13 14 15 16 16
14 11 7 6 6 5 5 6 5 5 6 8 8 7 6 6 6 6 8 9 10 9 7 5 4 4 4 3 3 3 3 2 1 1 1 1 1 1 2 3 1 2 1 2 1 2 2 0 3 4 2 2 4 3 3 3 2 3 4 7 9 9 5 5 8 10 9 7 6 6 7 7 7 6 6 7 7 8 9 10 12 12 13 14 15 15 16
13 10 6 3 2 2 2 4 5 6 6 7 7 6 5 5 5 4 5 6 7 9 8 7 6 6 5 4 3 4 3 2 2 1 0 0 1 1 1 1 1 0 2 2 3 2 1 2 2 3 3 2 3 3 3 4 3 2 3 6 9 9 6 7 10 12 11 9 9 10 10 9 8 8 7 7 9 9 10 10 11 12 13 14 14 15 17
11 9 4 1 1 1 2 4 5 6 6 6 6 5 4 5 5 4 5 5 5 5 7 8 8 9 7 5 5 5 5 4 3 2 1 1 1 0 1 0 1 1 3 1 3 0 3 2 1 2 2 1 2 1 2 3 5 5 5 7 9 9 7 8 10 11 10 8 10 12 12 10 9 9 8 8 9 10 10 10 11 12 13 14 15 16 18
12 10 5 2 3 4 5 7 6 4 4 6 6 4 4 5 4 3 3 4 4 4 5 5 6 6 7 7 5 3 4 5 4 2 1 1 1 1 2 0 1 1 3 0 2 1 3 1 1 2 0 3 4 2 2 1 3 5 7 9 9 8 7 8 9 9 6 4 6 9 9 7 7 9 9 9 10 11 11 11 11 12 13 14 16 17 18
15 12 9 9 9 7 5 6 4 3 4 5 4 3 3 3 3 2 3 4 4 4 4 3 4 4 5 6 5 3 3 4 4 4 3 1 0 1 2 1 1 2 2 2 2 1 2 2 2 1 2 5 4 1 1 1 4 7 10 10 8 7 8 8 7 7 5 3 5 8 8 6 7 8 8 9 10 11 11 11 11 12 12 14 16 17 18
14 14 12 12 9 5 1 3 4 4 3 3 3 2 2 2 2 3 4 3 1 1 3 3 4 2 2 3 5 4 3 2 3 4 3 1 1 1 1 1 1 2 0 2 1 2 2 2 2 0 3 4 2 1 2 4 6 9 10 10 8 7 7 7 6 5 4 4 6 7 7 8 9 8 7 8 10 10 11 11 12 12 13 14 15 17 18
11 11 10 9 6 3 2 2 4 3 2 2 2 2 2 2 3 3 2 2 1 0 1 1 3 4 3 3 4 4 4 3 3 4 2 1 1 1 1 1 2 1 1 1 2 3 2 1 1 2 5 4 1 3 5 6 7 8 9 10 10 8 7 6 5 4 4 5 7 7 6 8 10 9 7 8 10 10 11 12 12 12 13 14 15 16 16
8 7 6 4 2 1 2 2 3 3 2 2 3 3 3 4 4 3 2 2 2 1 0 1 3 3 2 1 2 3 4 4 4 4 2 1 2 2 2 1 0 1 0 1 2 1 1 1 1 2 4 5 1 5 8 8 9 9 9 10 11 10 8 6 5 5 5 7 9 7 6 8 12 11 8 8 9 11 11 12 13 13 14 14 14 15 15
5 4 3 2 0 1 1 1 2 2 2 2 2 3 3 3 3 2 2 2 1 1 1 2 4 4 3 2 2 3 3 3 3 3 2 1 2 3 1 1 1 1 2 2 2 1 0 1 0 1 4 6 3 4 9 10 9 9 9 9 11 11 9 7 6 5 5 8 10 8 6 8 12 12 9 8 9 10 12 13 14 15 14 15 15 16 17
3 2 3 2 0 0 1 1 2 2 1 0 1 1 1 2 3 4 4 3 3 3 4 4 4 5 4 2 2 2 2 3 3 2 1 2 3 1 1 1 1 2 2 2 2 1 0 1 2 3 4 6 4 4 10 11 10 10 10 9 11 12 10 8 7 7 6 8 10 9 7 9 11 11 9 8 9 10 11 13 15 16 16 16 16 17 17
3 2 2 1 0 1 2 1 0 1 1 2 2 2 3 3 3 4 4 4 4 5 6 5 5 5 4 3 2 2 3 3 3 1 1 2 2 1 1 2 3 2 2 3 2 1 0 1 3 3 3 5 4 3 10 12 11 11 10 9 10 12 11 9 8 8 8 10 11 10 8 10 12 11 10 9 10 11 12 14 16 17 16 17 17 17 18
2 2 1 1 0 1 1 1 1 2 2 2 3 3 2 1 1 2 4 6 6 6 6 5 4 4 3 3 3 2 2 3 3 2 1 1 1 2 2 2 2 2 2 3 1 1 1 2 3 3 3 4 4 2 9 12 12 11 11 10 11 12 11 10 9 10 10 11 11 10 9 11 12 12 11 10 11 12 13 14 16 17 17 17 17 18 19
2 2 1 1 1 1 0 0 1 2 3 2 2 2 1 0 1 3 5 7 7 6 5 3 3 3 2 2 2 3 3 3 3 2 2 2 3 2 2 2 3 3 3 2 1 1 1 2 3 3 3 3 3 1 7 11 13 12 12 11 12 12 11 11 11 11 11 11 11 10 10 11 13 14 12 11 12 13 14 15 16 16 16 17 19 20 20
2 2 2 2 2 1 1 2 3 3 4 4 2 1 2 2 2 3 7 9 9 6 4 2 2 2 2 1 2 3 3 2 2 2 3 4 4 3 2 4 4 2 2 2 2 0 1 1 2 2 2 3 2 0 4 9 13 13 12 12 12 12 12 12 12 13 13 11 11 10 11 12 13 14 14 12 12 13 15 16 16 16 16 17 19 20 21
2 3 3 2 2 1 0 2 3 2 2 1 1 2 3 3 3 4 8 10 9 6 3 1 1 2 3 3 3 2 1 1 2 4 5 4 3 3 4 5 4 2 2 2 2 1 0 1 2 2 2 2 3 1 3 7 11 14 14 13 13 13 13 13 14 14 14 13 12 12 12 12 13 14 15 14 13 13 14 15 16 16 16 17 19 20 21
2 2 1 2 2 1 2 2 2 1 1 1 2 3 3 4 4 6 8 8 7 5 3 2 2 3 3 2 1 1 1 1 2 4 4 3 3 4 5 4 1 1 2 2 2 2 1 1 3 3 3 3 3 3 2 4 9 13 15 15 15 14 14 15 15 15 15 14 13 13 12 12 12 14 15 15 14 14 14 15 16 17 18 19 20 20 20
Wind_Direction
358 359 359 357 358 359 357 352 348 347 349 352 337 290 262 259 297 284 221 225 230 252 264 233 225 253 282 297 278 267 268 258 271 274 242 226 207 210 226 220 210 181 168 159 160 163 156 166 174 164 169 167 148 167 178 179 175 180 187 163 150 202 196 169 161 177 184 163 172 208 229 216 207 209 212 211 208 208 216 228 216 205 212 206 216 229 167
358 359 359 357 355 355 355 349 345 348 348 344 331 295 267 257 265 250 226 228 231 252 272 259 258 278 294 301 286 274 269 259 264 267 246 205 175 181 169 176 199 178 171 165 160 158 150 165 169 164 174 158 133 168 180 182 182 187 186 167 162 182 196 178 164 171 182 181 185 198 209 216 214 210 212 214 211 207 211 228 227 217 215 206 217 228 174
359 360 0 0 359 356 354 352 349 354 355 345 326 282 262 259 247 234 233 233 232 249 278 282 286 288 288 292 288 285 266 239 242 261 264 247 218 174 126 179 216 172 172 167 160 159 150 157 159 164 173 145 124 178 185 184 187 188 184 176 173 184 198 191 183 180 187 194 198 194 192 201 216 215 212 214 214 208 204 209 217 225 222 211 221 227 132
360 1 0 1 4 3 360 355 352 356 2 352 332 290 264 276 259 219 225 228 231 248 268 270 268 277 290 297 292 314 346 194 213 252 252 230 228 233 259 256 185 170 173 165 156 159 156 154 156 162 164 140 140 183 184 188 191 182 178 181 180 192 205 205 214 213 204 204 194 176 178 189 201 209 210 212 214 214 212 215 221 225 223 221 225 220 151
1 1 1 3 7 10 8 2 355 353 357 358 340 299 264 269 262 212 232 237 233 245 254 245 240 269 298 324 323 341 19 59 104 233 240 220 228 226 228 221 177 166 170 166 156 155 155 154 153 157 155 132 140 169 179 190 183 160 169 188 189 200 199 208 233 265 47 118 139 156 184 197 198 201 205 208 210 214 216 219 223 219 220 221 203 197 201
1 1 1 3 7 12 12 8 3 357 355 360 350 314 271 266 268 249 267 264 242 253 262 252 249 258 262 282 319 344 21 41 42 340 286 258 227 191 171 191 184 170 169 168 160 155 158 159 152 152 152 134 135 157 175 186 170 153 178 192 193 215 199 196 220 223 65 57 82 136 195 206 207 207 208 208 209 212 214 219 221 218 224 225 173 181 216
2 1 0 2 5 11 14 13 12 9 4 6 6 343 305 304 310 315 317 300 277 274 281 284 279 258 232 232 312 336 7 25 23 340 296 163 161 206 167 169 182 178 171 168 165 158 159 163 153 147 151 148 145 153 165 180 176 176 188 185 189 220 195 177 207 215 182 106 90 112 200 208 217 218 215 213 212 213 214 218 221 220 226 236 201 194 217
2 0 360 1 2 7 14 18 20 20 17 14 14 10 342 333 330 323 319 306 291 291 297 298 303 327 308 333 352 349 3 13 6 334 315 85 63 14 154 156 179 186 177 175 177 169 163 166 160 152 150 148 152 159 161 172 178 184 185 170 183 213 176 157 202 217 194 163 142 184 215 219 226 224 221 220 217 214 214 216 219 219 221 226 227 223 220
1 360 360 2 1 4 10 16 21 24 22 13 6 1 343 332 324 318 314 305 306 325 344 323 320 28 24 359 3 8 3 355 351 4 7 341 338 332 331 358 174 179 179 181 177 171 173 171 162 161 162 155 152 156 163 168 172 180 182 169 178 202 189 165 202 222 201 180 187 208 218 249 245 234 223 217 217 218 216 212 206 209 216 214 214 227 223
0 1 1 2 2 3 8 14 19 22 21 11 356 347 339 331 332 333 316 294 305 326 345 355 10 33 8 352 358 359 347 340 344 21 23 313 298 290 309 325 201 164 164 164 144 108 203 178 157 166 175 172 163 149 157 168 173 177 177 174 182 194 199 186 198 217 205 178 187 209 223 241 241 236 227 216 213 212 210 207 201 208 218 213 209 226 220
358 360 3 3 2 2 6 12 18 20 19 10 353 343 340 330 329 331 315 299 331 328 339 19 30 19 353 349 352 345 341 349 350 343 327 319 321 312 305 310 219 137 119 86 78 71 91 138 157 169 175 179 174 159 156 170 177 178 175 178 184 189 201 201 194 213 204 171 165 210 229 234 225 142 359 274 214 204 203 206 205 208 216 218 223 226 184
357 358 1 2 0 1 5 10 16 19 20 19 10 360 355 341 330 332 316 313 347 355 8 30 29 18 358 344 340 333 320 306 279 277 292 311 320 311 297 308 82 105 57 41 116 100 117 144 161 166 165 166 164 163 166 170 175 179 181 182 179 184 201 203 191 213 204 167 176 217 229 231 120 84 41 18 1 215 214 217 210 206 208 209 214 199 168
357 358 358 359 357 358 2 7 12 16 18 23 27 22 15 6 346 338 318 306 351 9 4 22 36 31 17 353 337 317 292 276 252 246 257 264 294 341 16 11 43 62 5 244 184 164 140 146 152 155 155 151 145 147 157 161 171 185 188 188 183 183 196 196 195 212 199 178 203 219 229 117 116 117 145 142 118 180 196 228 221 206 206 206 205 198 178
355 356 355 355 354 354 358 3 8 12 15 19 26 28 26 20 354 333 328 318 355 10 1 19 30 18 13 6 347 318 306 295 229 140 162 224 297 25 32 17 27 72 68 185 194 183 145 140 142 144 151 158 155 150 143 138 163 196 200 199 194 192 193 189 196 211 209 213 214 214 252 176 178 182 179 179 183 176 186 234 224 198 197 201 198 188 171
350 353 353 353 351 351 355 358 2 8 11 13 20 26 24 21 11 348 339 315 321 9 23 25 7 351 355 15 17 9 5 14 59 109 128 114 41 38 29 12 36 94 92 225 181 149 142 143 144 145 152 166 167 162 161 148 132 190 215 215 209 210 207 197 197 201 212 233 225 212 231 231 210 165 161 171 180 177 195 253 230 181 183 191 193 182 167
344 347 352 353 349 348 352 354 356 3 7 9 13 18 18 18 19 6 343 324 307 359 16 6 347 334 341 15 30 24 13 10 10 55 107 56 25 19 12 6 37 64 12 299 125 110 157 150 141 142 146 162 162 150 160 166 143 136 196 209 210 222 228 215 211 200 198 225 234 221 228 231 175 124 140 159 164 153 184 233 223 176 176 184 186 177 167
341 343 348 352 348 346 349 350 350 357 3 6 9 10 9 13 19 20 350 337 310 308 338 343 339 343 1 27 32 19 12 17 13 24 59 27 355 343 348 359 42 58 347 303 148 132 155 144 148 149 129 128 162 146 150 165 150 141 166 191 202 210 219 221 223 215 199 213 233 232 228 182 111 116 133 149 154 156 196 219 208 164 173 180 182 176 172
338 340 344 348 348 345 346 347 346 350 356 3 7 8 1 6 16 24 2 342 321 304 336 347 344 353 8 4 358 2 7 12 18 32 54 43 346 335 336 339 18 65 356 319 185 147 139 132 147 151 122 81 199 154 151 161 154 154 166 177 187 196 204 214 223 223 208 209 229 237 219 113 107 132 141 143 152 190 221 218 137 136 174 180 181 178 174
333 336 338 341 345 345 343 343 343 345 349 356 4 8 1 1 10 15 2 343 323 305 333 352 347 341 343 338 337 355 1 355 357 16 49 61 355 327 311 302 301 25 10 16 109 120 140 131 94 132 149 150 163 159 154 156 151 155 165 172 181 188 193 205 218 225 218 214 228 236 226 127 122 135 140 153 182 211 218 154 43 105 171 173 179 180 174
326 330 333 335 340 342 340 338 339 340 343 349 357 5 2 358 3 7 2 346 317 301 324 352 353 343 336 332 332 336 339 357 20 27 47 49 355 331 302 255 303 334 357 56 72 59 137 137 111 317 185 133 127 213 161 139 133 142 165 183 185 180 189 200 207 214 221 220 218 231 244 159 148 144 143 196 223 226 65 80 50 92 164 167 174 178 174
321 324 328 331 334 335 335 335 334 335 338 343 349 358 1 356 356 358 357 349 319 294 322 356 6 8 3 349 336 326 316 322 353 9 20 32 11 353 13 64 11 359 14 28 74 92 5 65 98 100 176 106 139 222 146 143 158 142 20 253 198 178 201 217 205 195 215 226 212 221 352 148 159 154 128 191 152 36 18 51 74 98 162 170 174 179 179
317 318 322 325 327 328 328 329 329 329 332 336 342 351 356 354 352 352 353 350 330 302 313 354 18 31 26 11 1 3 350 326 308 316 334 352 15 343 325 8 18 22 10 351 4 96 72 133 131 138 156 150 182 185 164 199 173 142 144 233 223 152 202 275 241 197 220 259 218 68 58 150 165 146 42 61 113 24 11 28 71 115 167 176 179 181 180
314 312 315 317 319 321 321 324 326 324 325 330 335 342 349 352 350 347 350 351 344 335 342 16 32 31 20 7 359 11 17 16 14 333 308 313 330 0 35 35 18 12 13 358 349 357 10 20 1 320 185 160 191 190 208 238 208 148 166 205 203 64 63 306 288 196 224 273 145 92 90 161 173 161 67 59 27 335 12 17 48 137 170 181 186 183 180
315 310 310 310 312 314 314 318 321 319 319 323 326 333 341 346 346 347 352 351 344 337 339 10 23 13 5 359 355 358 2 10 17 12 347 319 320 350 54 33 0 350 9 357 342 326 316 354 342 281 231 148 259 236 213 215 207 171 199 196 162 138 180 239 260 202 212 213 149 115 105 164 185 192 172 105 185 205 226 335 242 184 185 186 187 183 179
316 311 307 305 305 306 307 311 314 314 314 316 317 323 334 338 338 343 350 348 338 326 319 346 12 7 4 7 8 353 348 359 24 25 29 28 353 323 334 343 339 332 324 326 325 293 269 281 259 246 214 144 250 261 237 203 148 223 240 229 156 143 180 220 237 220 217 203 89 94 161 198 200 203 199 190 185 187 192 194 180 189 191 186 185 183 177
313 312 306 301 298 298 300 304 307 307 307 310 312 314 323 330 324 322 343 349 333 302 294 323 344 350 356 13 22 2 354 6 49 34 29 37 33 357 332 323 320 318 312 309 300 276 278 284 265 265 255 138 259 290 6 21 38 241 255 290 83 123 174 204 231 225 231 239 183 175 220 222 203 202 204 199 183 175 191 201 186 180 186 189 191 188 183
310 310 304 298 295 293 294 298 301 301 301 305 309 307 310 317 307 290 329 354 335 292 290 326 329 334 345 7 12 8 8 6 14 18 11 15 21 11 357 338 316 299 287 272 246 255 263 250 247 295 14 83 234 279 349 358 284 252 251 152 135 181 204 184 206 232 241 241 158 178 248 245 174 183 203 201 193 189 198 207 203 192 191 192 186 180 181
305 306 301 295 290 287 290 295 296 296 298 301 305 303 302 306 291 257 256 338 343 318 301 305 313 324 339 4 0 0 358 347 332 307 304 316 330 347 354 347 316 273 250 245 236 234 239 231 184 83 88 132 214 197 183 226 229 252 251 161 172 221 235 195 235 256 254 45 41 316 267 306 64 104 191 196 197 200 200 202 205 199 193 190 183 177 177
304 305 300 294 286 281 285 291 292 294 296 300 305 306 306 309 285 239 235 280 326 321 302 298 304 321 334 340 351 357 347 336 317 293 294 289 304 332 348 340 319 288 251 255 256 249 235 82 54 57 163 212 238 193 183 213 224 230 81 132 169 203 245 262 298 329 55 40 19 340 265 333 16 57 178 182 189 195 195 197 199 195 192 190 188 183 179
308 306 300 292 283 277 279 285 289 292 293 298 310 306 281 269 257 236 233 265 308 321 311 302 305 319 325 330 345 350 342 338 330 301 272 253 278 319 333 335 338 327 251 246 254 265 133 119 94 61 140 190 265 243 207 236 240 163 95 125 177 180 167 255 294 339 20 11 13 148 196 336 317 174 172 186 191 187 184 192 191 186 186 186 185 187 185
311 308 300 289 279 274 274 278 284 288 289 292 299 285 239 225 232 224 223 258 312 321 304 286 288 300 311 324 341 342 342 348 3 348 229 225 283 306 311 337 357 343 293 267 158 138 109 119 129 140 152 194 274 272 236 253 258 156 117 142 182 183 183 231 236 240 301 352 142 167 146 55 166 139 161 191 198 192 186 192 192 186 182 178 181 186 185
316 311 302 287 275 271 270 272 277 282 284 282 269 243 237 258 227 212 219 265 318 317 298 290 292 300 311 323 332 339 346 354 4 18 126 131 325 311 297 328 13 22 21 80 144 135 72 46 141 156 154 196 263 264 249 258 268 110 119 144 176 184 191 204 203 215 225 178 171 188 202 175 179 168 170 191 201 200 189 186 189 185 176 169 173 180 180
321 314 302 287 274 268 266 268 274 278 280 279 266 243 241 247 235 224 233 270 299 287 283 291 288 284 314 321 325 343 357 351 331 236 132 83 15 331 294 207 201 35 45 62 137 100 101 175 191 147 135 179 252 269 264 262 320 100 128 156 165 174 188 195 188 186 183 178 188 264 329 184 186 196 190 189 197 198 186 175 173 169 163 162 167 172 173
326 316 304 289 274 266 264 269 275 275 273 271 263 247 240 239 237 237 241 255 276 263 255 271 275 277 302 305 296 11 3 346 326 305 34 51 14 333 322 197 193 214 25 39 116 136 144 179 255 165 151 165 228 268 265 242 124 128 155 169 162 165 178 184 186 184 181 184 198 295 330 206 198 202 193 186 192 191 178 169 168 164 161 166 168 166 167
328 319 308 290 273 266 268 274 275 271 266 256 245 242 240 235 236 234 223 213 238 252 234 233 251 276 300 292 236 51 8 350 346 345 341 347 344 327 312 269 203 164 61 50 179 180 139 52 314 261 172 161 221 249 257 239 152 159 174 176 170 172 175 178 185 187 181 185 202 251 220 193 189 181 172 174 182 182 174 171 173 170 167 169 168 165 165
330 324 314 293 277 272 273 275 267 244 223 226 228 231 230 225 226 224 211 209 229 251 263 262 249 259 289 294 312 352 340 326 353 341 289 281 323 8 278 279 261 99 64 270 226 179 73 38 284 262 196 209 253 266 313 331 199 181 187 185 178 178 183 184 182 179 175 182 194 182 168 171 169 163 166 172 175 176 175 175 176 175 171 169 168 167 167
335 332 324 298 281 269 258 257 245 215 211 221 223 223 221 218 225 231 226 227 235 241 251 269 265 259 282 303 314 313 308 309 342 336 243 267 337 32 268 284 20 91 224 227 158 55 34 288 274 274 252 265 296 323 341 316 266 194 194 191 182 180 183 178 172 167 161 167 177 174 171 174 171 167 171 175 174 176 178 177 177 177 174 170 167 167 167
340 341 340 315 264 218 210 232 232 227 225 218 211 218 225 218 221 228 218 218 229 229 231 245 257 254 257 264 264 270 292 335 324 293 169 2 330 200 220 291 23 337 255 187 98 31 274 201 233 277 271 289 321 317 290 270 251 223 208 189 181 180 177 171 172 170 165 169 181 182 180 182 179 177 180 180 177 177 177 175 175 177 174 169 164 164 165
349 348 354 75 137 183 252 255 245 241 235 212 201 208 208 197 202 205 184 184 206 211 208 224 243 247 244 245 251 256 265 279 279 254 170 48 17 53 254 297 85 271 270 179 99 313 255 199 196 258 249 88 45 8 307 272 253 238 213 182 177 180 177 175 181 183 186 198 201 191 186 188 186 181 179 177 176 177 175 172 173 173 169 166 166 166 168
6 7 12 12 337 297 271 261 254 240 214 197 196 206 203 195 203 204 175 186 207 199 190 217 245 245 245 258 266 252 240 254 281 310 333 14 34 343 293 319 92 272 277 65 89 286 279 286 238 242 304 41 42 39 16 314 238 206 181 170 172 178 178 180 189 193 204 230 211 190 189 195 187 180 179 177 176 176 174 172 171 168 167 171 175 174 174
359 355 346 332 322 304 266 247 237 204 184 187 193 210 214 200 198 208 211 219 217 186 179 230 253 220 213 237 252 249 241 257 285 301 298 284 102 280 275 97 98 268 271 73 77 265 268 284 271 263 22 27 24 27 62 106 142 154 156 156 160 169 175 179 187 194 206 214 190 183 189 191 181 178 179 178 176 174 172 171 169 169 174 183 182 179 182
338 330 325 325 328 334 274 207 195 179 186 205 204 205 210 194 190 210 223 236 247 154 167 224 264 268 232 238 246 251 258 249 242 253 254 188 157 261 279 118 187 252 286 71 56 252 248 257 260 21 43 30 18 170 155 145 146 150 152 150 148 153 163 170 176 185 194 186 178 182 188 186 180 177 174 176 178 176 172 171 171 171 179 188 189 188 193
332 326 328 333 343 17 70 165 186 184 202 219 197 192 203 200 203 211 201 180 193 218 179 237 279 281 268 248 235 231 234 234 231 242 253 154 150 214 235 214 228 262 59 101 236 251 269 277 284 38 33 20 343 189 177 166 158 159 163 163 155 149 151 160 169 175 174 170 173 179 182 180 180 178 172 173 178 178 175 177 178 177 180 187 193 197 199
337 332 340 347 354 55 95 144 181 202 225 214 198 202 204 196 197 202 170 146 157 185 36 340 305 286 260 234 229 224 222 221 220 224 226 155 172 215 234 225 164 94 124 226 245 273 322 298 281 358 8 2 325 192 187 180 172 170 175 176 171 164 160 161 165 168 171 174 176 177 175 178 181 181 176 174 180 181 180 182 185 185 185 189 193 197 197
337 320 322 342 68 122 120 154 183 208 223 214 213 226 224 199 182 162 103 68 1 337 9 342 309 297 289 275 256 239 219 195 191 199 209 206 204 215 246 27 67 223 250 258 268 276 188 173 154 28 11 6 0 189 188 187 184 179 180 183 182 177 173 173 179 178 177 180 182 182 178 179 181 182 180 180 182 182 183 185 187 189 188 187 190 195 197
351 338 323 327 354 266 244 207 190 198 197 150 303 294 330 33 67 69 54 28 338 322 331 323 301 289 284 276 253 225 219 217 205 183 197 232 223 189 59 12 246 242 255 265 271 265 174 64 49 37 18 7 358 191 186 188 190 186 184 189 188 183 181 185 191 191 185 182 183 184 182 178 177 179 182 183 182 184 187 187 186 187 189 189 190 194 195
338 337 322 313 238 220 216 202 109 51 45 32 26 24 26 37 59 63 39 4 340 330 322 305 284 270 267 272 270 237 213 217 217 182 193 234 221 129 116 239 238 234 254 259 254 226 121 49 33 22 10 4 1 187 186 190 195 193 191 192 190 187 189 192 192 192 189 183 180 182 184 181 179 179 183 183 181 184 189 189 186 187 190 193 194 196 196
304 298 289 263 242 222 165 131 120 115 101 68 51 51 37 8 100 71 27 359 344 332 318 300 283 267 240 226 247 255 216 201 211 204 192 229 192 144 177 230 231 219 238 249 233 107 64 28 19 4 348 356 8 176 190 196 198 195 194 194 192 190 193 195 191 188 184 180 180 184 187 184 183 183 184 184 185 187 189 190 189 190 192 194 197 197 196
272 282 279 260 263 267 102 195 201 154 129 116 88 61 27 323 96 38 5 350 341 330 317 303 292 284 246 187 226 251 231 209 208 190 172 201 213 195 193 217 215 205 214 217 187 85 37 28 21 0 342 351 10 154 195 203 203 197 194 196 195 192 193 194 191 186 183 182 185 190 190 187 187 188 187 185 188 191 191 191 191 192 194 197 199 198 194
247 253 257 251 242 203 170 215 223 188 159 152 139 71 7 4 30 12 351 346 341 322 292 257 254 275 278 237 236 235 216 202 208 200 195 206 208 194 201 223 225 204 170 165 173 171 24 17 0 349 349 350 352 176 192 204 209 205 199 196 194 193 194 193 190 188 187 187 190 194 193 191 191 191 191 190 189 192 195 198 198 196 197 199 200 197 194
235 238 246 256 268 284 222 245 237 212 194 185 78 38 9 354 356 353 347 342 331 304 272 257 313 277 244 226 231 238 228 212 222 219 216 212 197 195 216 228 227 201 158 147 146 143 144 299 302 311 330 331 319 298 198 199 206 207 205 201 196 194 194 194 192 191 192 192 192 194 197 196 195 194 194 194 193 194 199 203 202 200 199 198 196 195 193
235 240 236 236 251 276 287 279 276 285 298 318 351 358 345 335 338 342 340 334 321 309 323 348 316 264 238 249 302 306 276 237 221 220 221 210 191 212 235 245 220 129 140 134 121 127 170 271 291 299 308 317 319 319 288 214 207 206 207 206 202 198 196 194 194 194 194 194 195 197 197 198 198 197 196 197 197 198 201 204 205 203 199 195 193 192 193
Height
1478 1475 1472 1469 1467 1465 1463 1461 1459 1457 1456 1455 1454 1454 1453 1453 1451 1451 1452 1451 1451 1452 1448 1445 1444 1442 1439 1438 1438 1437 1436 1434 1433 1432 1430 1428 1427 1425 1422 1420 1417 1413 1410 1411 1413 1413 1415 1418 1418 1420 1423 1422 1424 1428 1432 1434 1435 1438 1438 1438 1443 1444 1442 1447 1455 1453 1449 1450 1452 1452 1453 1453 1454 1455 1453 1453 1457 1459 1463 1465 1464 1470 1472 1472 1480 1485 1481
1477 1474 1472 1469 1466 1464 1462 1460 1458 1457 1456 1455 1454 1454 1453 1452 1452 1451 1451 1451 1451 1451 1446 1443 1442 1441 1439 1439 1437 1435 1434 1433 1431 1430 1427 1425 1424 1422 1419 1418 1417 1414 1411 1411 1411 1412 1417 1419 1417 1418 1421 1422 1425 1428 1431 1433 1434 1436 1436 1438 1443 1446 1443 1445 1454 1459 1459 1460 1460 1459 1458 1456 1454 1453 1451 1452 1453 1455 1459 1461 1463 1471 1470 1469 1481 1482 1477
1477 1474 1472 1469 1466 1463 1461 1459 1458 1456 1455 1454 1453 1453 1453 1452 1451 1450 1450 1450 1450 1449 1446 1444 1444 1442 1441 1440 1436 1434 1432 1430 1429 1428 1426 1425 1423 1421 1419 1418 1417 1414 1412 1411 1411 1412 1417 1419 1418 1418 1419 1422 1427 1429 1431 1433 1433 1435 1437 1438 1441 1444 1443 1442 1449 1460 1464 1464 1461 1456 1456 1457 1455 1453 1452 1453 1453 1454 1461 1466 1471 1476 1469 1466 1473 1474 1476
1477 1474 1472 1469 1466 1464 1461 1459 1457 1456 1455 1454 1453 1453 1452 1451 1450 1449 1449 1449 1448 1447 1445 1444 1444 1442 1441 1438 1434 1432 1429 1426 1427 1427 1426 1425 1423 1421 1420 1418 1416 1415 1412 1412 1413 1413 1413 1416 1417 1418 1419 1422 1427 1429 1431 1433 1434 1436 1439 1440 1441 1443 1443 1441 1442 1446 1448 1448 1447 1444 1447 1454 1457 1456 1455 1455 1455 1455 1459 1466 1470 1469 1468 1469 1467 1465 1475
1477 1475 1472 1470 1467 1464 1462 1459 1457 1455 1454 1453 1452 1452 1451 1451 1450 1448 1449 1448 1446 1445 1443 1442 1442 1441 1440 1437 1433 1430 1427 1424 1426 1427 1424 1424 1423 1421 1420 1418 1416 1414 1413 1413 1414 1414 1413 1414 1415 1416 1418 1421 1426 1430 1432 1433 1434 1437 1440 1442 1442 1444 1447 1444 1442 1443 1441 1439 1441 1442 1444 1448 1451 1454 1455 1455 1456 1456 1459 1465 1464 1461 1468 1472 1464 1462 1471
1477 1475 1473 1470 1468 1465 1462 1459 1457 1455 1454 1453 1452 1451 1451 1450 1449 1447 1448 1446 1444 1442 1441 1440 1440 1440 1439 1437 1433 1430 1427 1424 1427 1428 1425 1423 1423 1420 1419 1418 1414 1412 1411 1413 1414 1414 1415 1416 1415 1416 1418 1422 1427 1431 1433 1434 1435 1438 1440 1441 1442 1444 1447 1445 1445 1446 1445 1444 1446 1445 1445 1445 1446 1449 1452 1453 1455 1456 1459 1462 1460 1459 1466 1467 1462 1464 1468
1477 1475 1473 1471 1469 1466 1463 1460 1457 1455 1453 1453 1452 1451 1450 1449 1448 1447 1446 1445 1442 1440 1439 1437 1437 1437 1437 1436 1433 1432 1428 1426 1428 1428 1424 1421 1420 1419 1419 1417 1414 1410 1409 1412 1415 1415 1417 1418 1417 1416 1418 1423 1427 1432 1435 1435 1436 1438 1439 1440 1442 1444 1445 1445 1445 1446 1447 1448 1450 1449 1448 1448 1447 1446 1447 1448 1451 1453 1456 1459 1457 1458 1462 1460 1459 1465 1464
1477 1475 1474 1472 1469 1467 1464 1461 1458 1456 1454 1453 1452 1452 1451 1450 1449 1448 1446 1444 1441 1438 1437 1436 1435 1433 1433 1433 1432 1430 1428 1427 1427 1426 1423 1422 1421 1420 1419 1417 1414 1412 1410 1411 1414 1414 1415 1417 1418 1417 1420 1423 1425 1429 1433 1433 1435 1437 1437 1440 1444 1445 1445 1445 1446 1447 1448 1449 1451 1452 1451 1451 1451 1448 1446 1447 1449 1450 1453 1456 1456 1458 1461 1460 1462 1465 1464
1478 1476 1474 1472 1470 1467 1465 1462 1459 1456 1455 1454 1453 1452 1451 1451 1450 1449 1447 1444 1440 1437 1435 1434 1433 1432 1432 1432 1430 1430 1430 1429 1427 1424 1423 1424 1423 1422 1421 1418 1415 1413 1412 1412 1413 1413 1413 1415 1416 1418 1420 1422 1423 1426 1427 1429 1433 1435 1436 1440 1444 1446 1447 1447 1448 1452 1450 1447 1450 1452 1451 1452 1453 1451 1448 1450 1452 1452 1451 1452 1454 1457 1460 1462 1466 1466 1461
1478 1476 1474 1472 1470 1468 1465 1463 1460 1457 1456 1454 1453 1452 1451 1450 1449 1448 1448 1445 1440 1437 1435 1433 1432 1433 1433 1432 1430 1430 1431 1430 1428 1427 1426 1425 1424 1423 1422 1420 1416 1414 1415 1416 1416 1416 1416 1417 1418 1419 1420 1420 1421 1423 1424 1427 1431 1433 1435 1440 1441 1444 1447 1447 1449 1454 1450 1447 1450 1451 1452 1457 1455 1450 1448 1449 1450 1451 1452 1453 1454 1455 1456 1459 1464 1460 1455
1477 1476 1474 1472 1470 1468 1466 1464 1461 1458 1456 1455 1454 1452 1451 1450 1449 1448 1448 1445 1439 1437 1436 1434 1433 1433 1432 1431 1430 1430 1430 1430 1429 1429 1428 1426 1424 1423 1422 1420 1417 1417 1419 1420 1419 1419 1419 1419 1421 1421 1422 1422 1423 1424 1425 1426 1429 1431 1434 1438 1440 1442 1445 1443 1445 1450 1450 1448 1449 1452 1457 1459 1454 1450 1451 1450 1448 1450 1452 1453 1454 1454 1452 1454 1456 1452 1451
1477 1475 1474 1472 1470 1469 1467 1465 1462 1459 1457 1456 1454 1453 1451 1450 1450 1448 1448 1445 1440 1435 1435 1434 1434 1433 1432 1431 1431 1430 1429 1430 1430 1428 1427 1426 1424 1423 1422 1420 1418 1419 1422 1421 1420 1420 1419 1420 1421 1422 1423 1424 1425 1426 1426 1426 1428 1430 1432 1435 1439 1442 1443 1442 1442 1446 1447 1447 1452 1461 1463 1455 1450 1452 1455 1453 1452 1451 1450 1451 1451 1452 1452 1453 1454 1453 1452
1477 1475 1474 1472 1470 1469 1467 1465 1463 1461 1459 1457 1455 1453 1452 1451 1450 1449 1448 1446 1440 1436 1435 1435 1433 1432 1432 1430 1430 1428 1427 1427 1428 1427 1427 1426 1425 1423 1422 1421 1420 1420 1421 1421 1420 1420 1420 1420 1422 1423 1424 1425 1427 1429 1429 1429 1431 1432 1431 1433 1437 1440 1443 1443 1443 1444 1447 1451 1456 1460 1457 1450 1451 1456 1456 1455 1456 1455 1455 1455 1452 1450 1451 1453 1454 1454 1454
1476 1475 1474 1472 1471 1469 1467 1466 1464 1462 1459 1457 1455 1454 1452 1451 1451 1450 1449 1446 1441 1436 1435 1434 1433 1432 1432 1431 1429 1427 1425 1424 1424 1425 1425 1425 1424 1423 1422 1422 1421 1421 1421 1420 1420 1419 1418 1420 1423 1426 1427 1428 1431 1434 1434 1433 1434 1434 1433 1432 1433 1436 1439 1442 1445 1446 1448 1451 1450 1448 1448 1451 1452 1451 1449 1450 1450 1448 1451 1452 1446 1444 1448 1450 1451 1453 1454
1476 1475 1474 1472 1471 1469 1467 1465 1464 1462 1460 1458 1456 1454 1453 1452 1451 1450 1450 1449 1444 1437 1433 1434 1435 1433 1431 1430 1428 1426 1425 1423 1422 1423 1423 1423 1423 1423 1423 1422 1421 1420 1420 1419 1418 1417 1416 1419 1424 1429 1431 1432 1435 1436 1435 1435 1436 1436 1436 1435 1434 1435 1435 1438 1445 1449 1448 1448 1446 1446 1452 1452 1444 1439 1440 1443 1444 1443 1445 1447 1443 1441 1444 1447 1448 1451 1453
1475 1474 1473 1472 1471 1469 1467 1465 1464 1462 1461 1459 1456 1455 1454 1453 1452 1451 1450 1450 1447 1440 1435 1436 1437 1435 1431 1428 1427 1427 1426 1424 1422 1421 1421 1422 1424 1424 1424 1423 1421 1421 1420 1418 1417 1417 1417 1419 1422 1427 1432 1432 1432 1434 1434 1434 1437 1438 1437 1437 1437 1438 1436 1435 1440 1446 1448 1449 1448 1447 1449 1444 1435 1435 1439 1442 1445 1444 1445 1448 1444 1437 1439 1444 1445 1448 1451
1475 1473 1472 1471 1470 1469 1467 1465 1464 1462 1461 1460 1457 1456 1455 1453 1452 1451 1451 1451 1448 1443 1439 1438 1438 1434 1431 1429 1428 1428 1427 1426 1425 1424 1424 1427 1428 1426 1426 1424 1422 1422 1421 1419 1417 1417 1418 1420 1420 1423 1429 1430 1428 1431 1432 1432 1437 1440 1439 1439 1439 1440 1440 1440 1441 1442 1445 1448 1447 1441 1438 1437 1436 1437 1440 1442 1444 1444 1448 1452 1444 1434 1436 1441 1442 1444 1448
1474 1473 1472 1470 1470 1468 1467 1465 1464 1462 1461 1460 1458 1457 1456 1454 1452 1451 1451 1451 1449 1444 1440 1439 1438 1435 1434 1433 1432 1432 1430 1429 1428 1427 1427 1429 1430 1429 1428 1426 1424 1423 1421 1419 1419 1419 1421 1423 1422 1422 1428 1430 1428 1429 1430 1431 1435 1436 1435 1436 1439 1440 1441 1441 1441 1440 1441 1446 1447 1438 1432 1435 1438 1439 1440 1442 1444 1447 1449 1447 1439 1434 1438 1440 1441 1444 1447
1473 1472 1471 1470 1469 1468 1466 1465 1464 1462 1461 1460 1459 1457 1456 1454 1453 1452 1451 1451 1450 1445 1441 1440 1439 1438 1437 1436 1435 1434 1433 1431 1430 1428 1428 1431 1432 1432 1431 1428 1426 1424 1421 1419 1420 1421 1423 1425 1423 1422 1425 1428 1428 1428 1429 1431 1432 1431 1431 1434 1438 1440 1441 1440 1440 1438 1436 1438 1442 1439 1433 1435 1438 1440 1442 1444 1444 1444 1442 1438 1436 1438 1439 1440 1443 1445 1447
1473 1471 1470 1469 1468 1467 1466 1465 1464 1462 1461 1460 1459 1458 1456 1455 1453 1452 1451 1451 1450 1446 1442 1440 1440 1439 1438 1437 1437 1435 1434 1433 1431 1430 1431 1433 1435 1433 1431 1429 1426 1424 1422 1421 1423 1425 1425 1426 1425 1423 1423 1425 1427 1428 1428 1430 1431 1430 1431 1432 1432 1433 1437 1438 1436 1436 1436 1438 1443 1443 1437 1435 1437 1439 1442 1444 1441 1438 1437 1437 1438 1439 1439 1441 1444 1446 1447
1471 1470 1469 1468 1467 1466 1465 1464 1464 1462 1461 1460 1459 1458 1457 1455 1454 1452 1451 1451 1449 1446 1443 1441 1440 1439 1438 1438 1438 1437 1436 1435 1434 1434 1433 1434 1435 1434 1432 1430 1427 1425 1424 1424 1425 1426 1425 1424 1425 1425 1425 1425 1428 1429 1428 1430 1432 1432 1432 1432 1430 1429 1432 1432 1430 1431 1436 1440 1440 1438 1434 1433 1435 1436 1438 1440 1439 1439 1439 1438 1438 1439 1441 1443 1444 1446 1448
1470 1469 1468 1467 1466 1465 1464 1464 1463 1462 1461 1460 1459 1458 1457 1456 1454 1453 1451 1450 1448 1446 1443 1442 1441 1440 1439 1438 1438 1437 1437 1436 1436 1436 1435 1435 1434 1434 1432 1430 1428 1428 1428 1426 1425 1426 1426 1425 1424 1425 1425 1426 1427 1428 1429 1429 1431 1432 1433 1434 1433 1430 1432 1433 1430 1428 1431 1432 1431 1431 1433 1434 1436 1437 1438 1439 1440 1441 1440 1440 1439 1441 1442 1443 1444 1447 1449
1468 1468 1467 1466 1465 1464 1463 1463 1462 1461 1460 1459 1458 1457 1457 1456 1454 1453 1451 1449 1447 1444 1443 1442 1441 1440 1439 1439 1438 1437 1437 1436 1436 1436 1436 1435 1434 1432 1431 1430 1430 1430 1430 1430 1428 1427 1426 1425 1425 1425 1425 1425 1425 1427 1429 1428 1427 1428 1430 1431 1432 1432 1434 1435 1432 1429 1430 1431 1431 1433 1435 1435 1436 1438 1440 1441 1441 1441 1441 1441 1442 1442 1443 1444 1445 1447 1448
1467 1466 1466 1465 1464 1463 1462 1462 1461 1461 1460 1459 1458 1457 1456 1455 1454 1453 1451 1450 1448 1445 1442 1441 1441 1441 1440 1439 1439 1438 1437 1437 1436 1436 1436 1435 1434 1432 1431 1432 1432 1432 1431 1432 1432 1430 1429 1427 1428 1427 1427 1426 1425 1425 1427 1428 1426 1426 1428 1429 1430 1433 1435 1434 1432 1431 1433 1433 1431 1433 1435 1436 1437 1439 1440 1441 1442 1442 1442 1443 1443 1443 1443 1444 1445 1446 1448
1465 1465 1465 1464 1463 1462 1461 1461 1460 1460 1459 1458 1457 1457 1456 1455 1454 1453 1453 1451 1450 1448 1444 1441 1440 1441 1440 1439 1439 1438 1437 1437 1436 1436 1435 1435 1435 1434 1433 1433 1433 1433 1432 1432 1432 1432 1430 1429 1428 1427 1427 1428 1428 1425 1425 1427 1428 1429 1428 1427 1427 1432 1435 1433 1431 1431 1432 1431 1431 1433 1435 1436 1437 1438 1439 1441 1442 1442 1442 1442 1442 1443 1444 1444 1445 1446 1447
1463 1463 1463 1463 1462 1461 1461 1459 1459 1458 1458 1457 1456 1456 1456 1455 1454 1454 1453 1452 1451 1450 1446 1442 1440 1440 1440 1439 1439 1438 1437 1437 1436 1436 1435 1435 1435 1435 1434 1434 1433 1433 1432 1432 1432 1432 1430 1428 1427 1425 1425 1428 1429 1427 1426 1428 1430 1430 1429 1427 1429 1433 1434 1432 1431 1431 1430 1429 1431 1433 1433 1433 1434 1436 1437 1439 1440 1441 1442 1442 1443 1443 1444 1444 1444 1445 1447
1461 1461 1461 1461 1460 1460 1459 1458 1457 1457 1456 1456 1456 1455 1454 1454 1454 1453 1453 1453 1452 1449 1447 1443 1441 1440 1439 1439 1439 1438 1437 1437 1436 1436 1436 1435 1435 1435 1434 1433 1433 1433 1433 1432 1432 1432 1430 1428 1428 1427 1427 1429 1430 1429 1429 1430 1430 1430 1428 1428 1431 1432 1430 1430 1431 1432 1429 1428 1429 1431 1431 1430 1431 1434 1436 1438 1439 1440 1441 1442 1442 1443 1444 1444 1444 1445 1447
1460 1459 1459 1459 1458 1458 1458 1457 1456 1455 1455 1455 1455 1454 1453 1453 1453 1453 1453 1453 1453 1451 1449 1446 1443 1440 1438 1438 1438 1438 1437 1436 1436 1436 1435 1435 1435 1434 1434 1433 1433 1433 1432 1432 1431 1430 1428 1427 1428 1429 1430 1431 1431 1430 1431 1431 1431 1430 1427 1427 1429 1430 1428 1429 1430 1430 1429 1429 1430 1432 1431 1431 1432 1434 1436 1437 1438 1439 1440 1441 1442 1443 1443 1444 1444 1445 1447
1458 1457 1457 1456 1457 1456 1456 1456 1455 1454 1453 1453 1453 1453 1452 1452 1452 1452 1452 1453 1453 1452 1451 1447 1443 1440 1438 1438 1438 1438 1437 1436 1435 1435 1435 1435 1435 1434 1434 1433 1433 1432 1432 1431 1430 1427 1427 1428 1430 1431 1431 1432 1430 1429 1429 1430 1429 1427 1426 1427 1429 1430 1430 1431 1430 1430 1430 1432 1433 1433 1433 1433 1434 1435 1435 1436 1437 1438 1440 1441 1441 1442 1443 1443 1444 1445 1446
1456 1455 1455 1454 1455 1455 1454 1454 1453 1452 1452 1452 1452 1452 1452 1452 1451 1451 1452 1452 1452 1452 1451 1448 1444 1440 1439 1438 1437 1437 1437 1435 1435 1434 1434 1434 1434 1434 1434 1433 1432 1432 1431 1430 1429 1428 1428 1430 1432 1432 1432 1433 1431 1428 1426 1426 1425 1424 1426 1429 1430 1431 1432 1433 1432 1432 1432 1433 1433 1434 1434 1434 1434 1434 1435 1436 1437 1438 1439 1440 1440 1441 1442 1443 1445 1446 1447
1454 1453 1453 1452 1453 1453 1453 1453 1452 1451 1451 1451 1452 1452 1451 1450 1451 1451 1451 1452 1451 1451 1451 1449 1444 1440 1438 1438 1437 1436 1436 1435 1434 1434 1434 1434 1434 1433 1433 1433 1432 1431 1430 1429 1429 1430 1429 1429 1431 1432 1433 1433 1432 1427 1425 1425 1424 1423 1426 1429 1430 1431 1432 1433 1433 1433 1434 1434 1434 1435 1434 1435 1435 1435 1435 1436 1436 1437 1438 1439 1439 1440 1441 1443 1445 1446 1448
1452 1451 1451 1451 1451 1451 1451 1451 1450 1450 1449 1450 1450 1451 1450 1450 1450 1450 1451 1451 1451 1451 1451 1449 1445 1441 1439 1437 1436 1435 1435 1434 1434 1434 1433 1433 1434 1433 1432 1433 1432 1431 1431 1430 1430 1430 1431 1431 1431 1431 1432 1433 1432 1428 1425 1424 1424 1424 1427 1429 1430 1431 1432 1433 1433 1434 1434 1434 1435 1435 1435 1435 1435 1435 1435 1436 1437 1437 1438 1439 1439 1440 1441 1443 1445 1446 1448
1450 1450 1449 1449 1449 1449 1449 1449 1449 1448 1448 1448 1449 1449 1449 1449 1449 1449 1450 1450 1450 1451 1451 1449 1446 1442 1439 1436 1435 1435 1434 1433 1433 1433 1432 1433 1433 1432 1432 1432 1432 1431 1431 1430 1430 1430 1432 1432 1431 1431 1432 1433 1432 1429 1426 1424 1424 1426 1428 1430 1430 1431 1432 1433 1433 1434 1434 1435 1435 1435 1435 1435 1435 1435 1436 1436 1437 1437 1438 1439 1439 1440 1441 1443 1445 1447 1448
1448 1448 1447 1447 1447 1447 1447 1447 1447 1447 1447 1447 1447 1447 1447 1447 1448 1448 1449 1450 1450 1450 1450 1449 1446 1442 1438 1435 1433 1434 1434 1433 1432 1432 1431 1432 1432 1432 1431 1431 1431 1431 1431 1431 1431 1431 1431 1431 1431 1431 1431 1431 1431 1431 1427 1424 1424 1427 1429 1430 1431 1432 1432 1433 1434 1434 1435 1435 1435 1435 1435 1435 1435 1436 1436 1436 1437 1438 1438 1439 1440 1441 1442 1444 1445 1447 1448
1446 1446 1445 1445 1445 1445 1445 1445 1445 1445 1445 1446 1446 1446 1446 1446 1447 1447 1448 1450 1450 1449 1448 1448 1445 1442 1438 1434 1432 1432 1433 1433 1432 1432 1432 1432 1432 1432 1431 1429 1428 1430 1431 1431 1430 1429 1430 1432 1432 1429 1428 1429 1431 1429 1425 1422 1424 1427 1429 1429 1430 1432 1432 1433 1434 1434 1434 1435 1435 1435 1436 1436 1436 1437 1437 1437 1438 1438 1439 1440 1441 1442 1443 1444 1445 1447 1449
1445 1444 1443 1443 1443 1443 1443 1443 1443 1444 1445 1444 1444 1445 1445 1446 1446 1447 1447 1449 1449 1448 1446 1445 1444 1441 1438 1435 1433 1433 1433 1433 1432 1432 1432 1431 1431 1431 1431 1428 1427 1430 1431 1431 1429 1428 1430 1433 1432 1427 1426 1428 1427 1425 1423 1423 1425 1426 1428 1429 1430 1431 1431 1432 1433 1433 1434 1435 1435 1436 1436 1437 1437 1438 1438 1438 1439 1439 1440 1441 1442 1443 1444 1445 1446 1447 1449
1443 1442 1442 1442 1442 1442 1442 1442 1442 1443 1443 1443 1443 1444 1445 1445 1446 1447 1447 1448 1448 1448 1447 1446 1442 1439 1437 1436 1435 1434 1433 1432 1430 1430 1430 1430 1430 1431 1430 1428 1428 1430 1430 1428 1428 1429 1432 1433 1431 1427 1425 1425 1424 1423 1424 1426 1426 1426 1428 1428 1429 1430 1431 1432 1432 1433 1434 1435 1436 1436 1437 1437 1438 1438 1438 1439 1439 1440 1440 1441 1442 1443 1444 1445 1446 1448 1449
1442 1441 1441 1441 1441 1442 1442 1442 1441 1442 1442 1443 1444 1444 1445 1445 1446 1446 1446 1447 1446 1446 1446 1445 1442 1439 1438 1438 1436 1434 1432 1432 1430 1429 1429 1429 1429 1430 1429 1429 1430 1430 1428 1426 1429 1432 1432 1431 1430 1427 1424 1423 1424 1425 1426 1426 1426 1426 1427 1428 1429 1430 1431 1431 1432 1433 1434 1435 1435 1436 1436 1437 1437 1438 1438 1439 1439 1440 1440 1442 1443 1444 1445 1446 1447 1448 1449
1441 1441 1440 1441 1441 1441 1441 1441 1441 1441 1441 1442 1443 1444 1444 1445 1445 1444 1443 1444 1444 1443 1443 1442 1439 1437 1436 1436 1434 1433 1433 1433 1430 1428 1428 1429 1429 1429 1429 1428 1430 1430 1427 1425 1429 1432 1429 1426 1427 1426 1423 1421 1423 1425 1425 1425 1425 1426 1426 1427 1428 1429 1430 1431 1432 1433 1433 1433 1434 1434 1435 1436 1436 1437 1438 1438 1439 1440 1441 1442 1443 1444 1445 1446 1447 1448 1449
1441 1441 1440 1440 1440 1440 1440 1440 1440 1440 1441 1442 1443 1443 1442 1442 1442 1441 1441 1441 1440 1439 1439 1438 1436 1435 1436 1435 1433 1432 1433 1432 1430 1428 1427 1428 1430 1430 1429 1428 1430 1431 1427 1426 1429 1432 1428 1425 1425 1423 1420 1420 1422 1424 1425 1425 1425 1425 1426 1427 1428 1429 1430 1431 1432 1432 1433 1433 1434 1434 1435 1436 1436 1437 1438 1438 1439 1440 1441 1442 1443 1444 1445 1446 1447 1449 1450
1441 1441 1441 1440 1439 1439 1438 1439 1439 1440 1441 1441 1442 1441 1440 1440 1440 1439 1438 1437 1435 1434 1436 1436 1434 1433 1434 1434 1434 1433 1432 1432 1432 1431 1429 1429 1430 1430 1429 1429 1431 1431 1427 1427 1430 1430 1428 1426 1425 1422 1420 1422 1424 1424 1425 1425 1425 1425 1426 1427 1428 1429 1430 1431 1431 1432 1433 1433 1434 1435 1436 1436 1437 1438 1438 1438 1439 1440 1441 1442 1443 1444 1445 1446 1448 1449 1451
1442 1441 1441 1439 1438 1437 1437 1438 1438 1439 1440 1440 1440 1439 1438 1438 1438 1437 1436 1434 1432 1432 1434 1434 1433 1432 1432 1433 1433 1433 1431 1432 1433 1432 1429 1429 1430 1430 1429 1429 1431 1430 1428 1429 1430 1428 1427 1426 1425 1421 1420 1423 1424 1425 1425 1425 1426 1426 1427 1427 1428 1429 1430 1431 1432 1432 1433 1433 1434 1435 1435 1436 1437 1438 1439 1439 1440 1441 1442 1442 1444 1445 1446 1447 1448 1450 1451
1442 1441 1440 1438 1438 1437 1437 1437 1438 1438 1438 1438 1439 1439 1438 1436 1434 1433 1432 1433 1433 1433 1433 1433 1433 1432 1432 1432 1432 1431 1431 1431 1432 1430 1429 1429 1430 1430 1429 1429 1429 1429 1429 1430 1429 1427 1426 1425 1423 1420 1421 1423 1424 1424 1425 1425 1426 1426 1427 1428 1428 1429 1430 1431 1432 1432 1432 1433 1434 1435 1436 1436 1437 1438 1439 1440 1440 1441 1442 1443 1444 1445 1446 1448 1449 1450 1452
1441 1440 1439 1439 1438 1438 1438 1437 1437 1438 1438 1437 1436 1436 1435 1433 1431 1430 1430 1432 1433 1433 1433 1434 1433 1432 1431 1431 1431 1431 1430 1430 1430 1430 1429 1429 1429 1429 1429 1428 1428 1428 1429 1428 1426 1424 1425 1424 1422 1421 1422 1423 1423 1424 1424 1425 1426 1426 1427 1427 1428 1429 1430 1431 1432 1432 1433 1433 1434 1435 1436 1436 1437 1438 1439 1440 1441 1442 1443 1444 1445 1446 1447 1448 1450 1451 1452
1441 1440 1440 1439 1438 1438 1438 1437 1436 1436 1436 1434 1432 1430 1429 1429 1428 1428 1430 1433 1434 1433 1433 1434 1434 1432 1431 1431 1430 1429 1429 1429 1429 1428 1428 1427 1427 1427 1427 1427 1427 1427 1427 1426 1424 1424 1424 1422 1420 1420 1422 1422 1423 1423 1424 1424 1425 1426 1426 1427 1428 1429 1430 1431 1432 1432 1433 1433 1434 1435 1436 1436 1437 1439 1440 1441 1442 1443 1443 1444 1445 1446 1448 1449 1450 1452 1453
1441 1441 1440 1439 1438 1437 1437 1436 1434 1433 1433 1433 1432 1431 1430 1429 1430 1431 1433 1435 1435 1434 1434 1434 1434 1432 1431 1430 1429 1428 1428 1428 1427 1427 1427 1427 1427 1428 1429 1429 1428 1428 1427 1426 1425 1424 1422 1419 1419 1420 1422 1422 1422 1422 1423 1424 1424 1425 1426 1427 1427 1428 1429 1431 1431 1432 1433 1433 1434 1435 1436 1436 1437 1439 1440 1441 1442 1443 1444 1444 1445 1447 1448 1450 1451 1452 1454
1441 1441 1440 1439 1438 1436 1435 1434 1434 1434 1434 1434 1434 1434 1434 1434 1434 1435 1436 1436 1435 1435 1434 1434 1433 1432 1431 1430 1428 1427 1426 1426 1426 1427 1427 1426 1426 1427 1430 1430 1428 1427 1427 1427 1426 1422 1419 1418 1419 1421 1422 1422 1421 1421 1422 1423 1424 1425 1426 1427 1427 1428 1429 1430 1431 1431 1432 1433 1434 1435 1436 1436 1438 1439 1440 1441 1442 1442 1443 1445 1446 1447 1448 1450 1451 1453 1454
1442 1441 1440 1439 1437 1435 1434 1434 1435 1435 1436 1436 1436 1436 1436 1436 1435 1435 1436 1436 1435 1435 1434 1433 1432 1430 1429 1429 1428 1426 1425 1425 1426 1427 1426 1426 1426 1429 1431 1430 1427 1425 1425 1424 1421 1418 1417 1418 1420 1421 1421 1421 1421 1421 1421 1422 1423 1424 1425 1426 1427 1428 1429 1429 1430 1431 1432 1433 1434 1435 1436 1436 1437 1438 1440 1441 1441 1442 1443 1444 1446 1447 1449 1450 1451 1453 1454
1441 1441 1440 1439 1437 1435 1435 1435 1434 1434 1435 1436 1437 1437 1436 1436 1435 1436 1436 1436 1435 1434 1433 1433 1432 1430 1427 1427 1427 1426 1424 1424 1425 1425 1425 1426 1427 1427 1428 1428 1427 1425 1421 1419 1417 1417 1418 1419 1420 1421 1421 1421 1420 1420 1421 1421 1422 1423 1424 1425 1426 1427 1428 1429 1430 1431 1431 1432 1434 1435 1435 1436 1437 1438 1440 1441 1441 1442 1443 1444 1445 1447 1448 1450 1451 1452 1454
1441 1440 1439 1438 1436 1435 1435 1435 1433 1432 1433 1435 1436 1436 1436 1436 1436 1436 1436 1435 1435 1434 1433 1432 1431 1430 1427 1427 1427 1425 1423 1422 1422 1423 1424 1424 1423 1423 1424 1426 1424 1420 1417 1416 1417 1418 1419 1420 1421 1421 1421 1420 1420 1420 1420 1420 1421 1422 1423 1424 1425 1426 1427 1428 1429 1430 1431 1432 1433 1434 1435 1436 1437 1438 1439 1441 1441 1442 1443 1444 1445 1447 1448 1449 1450 1452 1454
1440 1439 1438 1437 1436 1435 1435 1435 1433 1432 1433 1434 1435 1436 1437 1437 1436 1436 1436 1435 1434 1433 1431 1430 1430 1429 1428 1427 1426 1425 1423 1422 1421 1421 1421 1420 1419 1420 1422 1421 1417 1414 1414 1416 1418 1419 1420 1420 1421 1421 1420 1420 1420 1419 1419 1419 1420 1421 1422 1423 1424 1425 1426 1427 1428 1429 1430 1431 1432 1433 1434 1435 1436 1438 1439 1440 1441 1442 1443 1444 1445 1446 1447 1449 1450 1452 1453
1439 1438 1437 1437 1437 1437 1436 1436 1435 1435 1435 1436 1436 1437 1437 1437 1437 1436 1436 1435 1434 1432 1431 1431 1431 1429 1428 1427 1426 1425 1424 1423 1422 1421 1419 1418 1418 1418 1417 1415 1413 1413 1415 1417 1418 1419 1420 1420 1420 1420 1420 1420 1419 1419 1418 1419 1419 1420 1421 1422 1423 1424 1425 1426 1427 1428 1429 1430 1431 1432 1433 1435 1436 1437 1438 1440 1441 1442 1443 1443 1444 1445 1447 1448 1450 1451 1453